Time,TemperatureF,DewpointF,PressureIn,WindDirection,WindDirectionDegrees,WindSpeedMPH,WindSpeedGustMPH,Humidity,HourlyPrecipIn,Conditions,Clouds,dailyrainin,SoftwareType,DateUTC
2013-09-22 00:02:00,-999.0,-99.9,-100.00,SSW,206,7.0,14.0,-999,-99.99,,,-99.99,,2013-09-22 04:02:00,
2013-09-22 00:23:00,68.0,66.0,-100.00,SSW,195,7.0,16.0,94,0.00,,,0.00,,2013-09-22 04:23:00,
2013-09-22 00:54:00,68.0,66.0,-100.00,SSW,206,8.0,17.0,93,0.00,,,0.00,,2013-09-22 04:54:00,
2013-09-22 01:23:00,68.0,66.0,-100.00,SSE,148,5.0,15.0,93,0.00,,,0.00,,2013-09-22 05:23:00,
2013-09-22 01:53:00,67.0,65.0,-100.00,SE,145,7.0,14.0,93,0.00,,,0.00,,2013-09-22 05:53:00,
2013-09-22 02:22:00,67.0,66.0,-100.00,SSE,158,5.0,17.0,95,0.00,,,0.00,,2013-09-22 06:22:00,
2013-09-22 02:52:00,66.0,65.0,-100.00,SSE,156,6.0,11.0,96,0.01,,,0.01,,2013-09-22 06:52:00,
2013-09-22 03:22:00,67.0,66.0,-100.00,SSE,150,8.0,22.0,97,0.01,,,0.01,,2013-09-22 07:22:00,
2013-09-22 03:52:00,68.0,67.0,-100.00,SSE,156,9.0,17.0,96,0.00,,,0.01,,2013-09-22 07:52:00,
2013-09-22 04:22:00,68.0,67.0,-100.00,SSW,208,10.0,17.0,96,0.00,,,0.01,,2013-09-22 08:22:00,
2013-09-22 04:52:00,68.0,67.0,-100.00,South,191,6.0,16.0,95,0.00,,,0.01,,2013-09-22 08:52:00,
2013-09-22 05:22:00,68.0,67.0,-100.00,SSW,207,8.0,17.0,95,0.00,,,0.01,,2013-09-22 09:22:00,
2013-09-22 05:54:00,67.0,66.0,-100.00,SSW,200,14.0,35.0,95,0.32,,,0.33,,2013-09-22 09:54:00,
2013-09-22 06:23:00,65.0,64.0,-100.00,WSW,242,10.0,21.0,96,0.87,,,0.88,,2013-09-22 10:23:00,
2013-09-22 06:53:00,64.0,63.0,-100.00,West,260,7.0,14.0,97,0.59,,,0.92,,2013-09-22 10:53:00,
2013-09-22 07:22:00,63.0,62.0,-100.00,WSW,254,9.0,14.0,97,0.06,,,0.94,,2013-09-22 11:22:00,
2013-09-22 07:52:00,61.0,60.0,-100.00,WNW,299,6.0,11.0,96,0.04,,,0.96,,2013-09-22 11:52:00,
2013-09-22 08:22:00,60.0,59.0,-100.00,West,281,4.0,7.0,96,0.04,,,0.98,,2013-09-22 12:22:00,
2013-09-22 08:52:00,60.0,59.0,-100.00,West,276,5.0,8.0,97,0.02,,,0.98,,2013-09-22 12:52:00,
2013-09-22 09:22:00,60.0,59.0,-100.00,WNW,297,6.0,8.0,97,0.00,,,0.98,,2013-09-22 13:22:00,
2013-09-22 09:52:00,61.0,60.0,-100.00,West,278,6.0,9.0,96,0.00,,,0.98,,2013-09-22 13:52:00,
2013-09-22 10:22:00,61.0,60.0,-100.00,West,274,9.0,14.0,96,0.00,,,0.98,,2013-09-22 14:22:00,
2013-09-22 10:52:00,61.0,60.0,-100.00,WNW,297,4.0,9.0,97,0.00,,,0.98,,2013-09-22 14:52:00,
2013-09-22 11:23:00,61.0,60.0,-100.00,WNW,289,6.0,10.0,95,0.00,,,0.98,,2013-09-22 15:23:00,
2013-09-22 11:55:00,62.0,58.0,-100.00,WNW,287,6.0,11.0,88,0.00,,,0.98,,2013-09-22 15:55:00,
2013-09-22 12:24:00,64.0,58.0,-100.00,West,262,6.0,12.0,82,0.00,,,0.98,,2013-09-22 16:24:00,
2013-09-22 12:54:00,66.0,57.0,-100.00,WNW,284,9.0,15.0,72,0.00,,,0.98,,2013-09-22 16:54:00,
2013-09-22 13:23:00,66.0,55.0,-100.00,West,268,10.0,15.0,68,0.00,,,0.98,,2013-09-22 17:23:00,
2013-09-22 13:53:00,67.0,56.0,-100.00,WNW,302,6.0,13.0,67,0.00,,,0.98,,2013-09-22 17:53:00,
2013-09-22 14:22:00,67.0,55.0,-100.00,NNW,328,9.0,15.0,66,0.00,,,0.98,,2013-09-22 18:22:00,
2013-09-22 14:52:00,67.0,54.0,-100.00,WNW,296,11.0,18.0,62,0.00,,,0.98,,2013-09-22 18:52:00,
2013-09-22 15:22:00,66.0,53.0,-100.00,NW,315,10.0,20.0,64,0.00,,,0.98,,2013-09-22 19:22:00,
2013-09-22 15:53:00,66.0,52.0,-100.00,WNW,290,13.0,21.0,61,0.00,,,0.98,,2013-09-22 19:53:00,
2013-09-22 16:22:00,66.0,51.0,-100.00,WNW,283,11.0,16.0,58,0.00,,,0.98,,2013-09-22 20:22:00,
2013-09-22 16:52:00,65.0,49.0,-100.00,West,268,11.0,19.0,57,0.00,,,0.98,,2013-09-22 20:52:00,
2013-09-22 17:23:00,65.0,50.0,-100.00,WNW,295,10.0,18.0,58,0.00,,,0.98,,2013-09-22 21:23:00,
2013-09-22 17:54:00,64.0,50.0,-100.00,WSW,245,8.0,15.0,61,0.00,,,0.98,,2013-09-22 21:54:00,
2013-09-22 18:24:00,62.0,50.0,-100.00,West,272,9.0,17.0,64,0.00,,,0.98,,2013-09-22 22:24:00,
2013-09-22 18:54:00,60.0,49.0,-100.00,West,280,9.0,18.0,68,0.00,,,0.98,,2013-09-22 22:54:00,
2013-09-22 19:22:00,59.0,49.0,-100.00,NW,306,10.0,15.0,70,0.00,,,0.98,,2013-09-22 23:22:00,
2013-09-22 19:52:00,58.0,48.0,-100.00,WNW,297,9.0,14.0,69,0.00,,,0.98,,2013-09-22 23:52:00,
2013-09-22 20:23:00,57.0,48.0,-100.00,WNW,287,7.0,13.0,71,0.00,,,0.98,,2013-09-23 00:23:00,
2013-09-22 20:53:00,56.0,48.0,-100.00,West,280,8.0,13.0,74,0.00,,,0.98,,2013-09-23 00:53:00,
2013-09-22 21:22:00,55.0,47.0,-100.00,West,274,7.0,9.0,75,0.00,,,0.98,,2013-09-23 01:22:00,
2013-09-22 21:52:00,54.0,47.0,-100.00,WNW,283,6.0,10.0,76,0.00,,,0.98,,2013-09-23 01:52:00,
2013-09-22 22:22:00,53.0,47.0,-100.00,NW,316,7.0,10.0,79,0.00,,,0.98,,2013-09-23 02:22:00,
2013-09-22 22:52:00,52.0,46.0,-100.00,NW,310,6.0,9.0,81,0.00,,,0.98,,2013-09-23 02:52:00,
2013-09-22 23:23:00,51.0,46.0,-100.00,NW,306,6.0,8.0,83,0.00,,,0.98,,2013-09-23 03:23:00,
2013-09-22 23:54:00,51.0,46.0,-100.00,WNW,296,7.0,11.0,83,0.00,,,0.98,,2013-09-23 03:54:00,